Time,TemperatureF,DewpointF,PressureIn,WindDirection,WindDirectionDegrees,WindSpeedMPH,WindSpeedGustMPH,Humidity,HourlyPrecipIn,Conditions,Clouds,dailyrainin,SoftwareType,DateUTC
2013-05-08 00:13:00,54.2,49.0,30.06,NE,49,0.0,-999.0,83,-99.99,,,0.00,weatherlink.com 1.10,2013-05-08 04:13:00,
2013-05-08 00:28:00,53.7,49.0,30.06,NE,49,0.0,-999.0,84,-99.99,,,0.00,weatherlink.com 1.10,2013-05-08 04:28:00,
2013-05-08 00:43:00,53.6,50.0,30.06,NE,49,0.0,-999.0,86,-99.99,,,0.00,weatherlink.com 1.10,2013-05-08 04:43:00,
2013-05-08 00:58:00,53.9,50.0,30.07,NE,49,0.0,-999.0,85,-99.99,,,0.00,weatherlink.com 1.10,2013-05-08 04:58:00,
2013-05-08 01:13:00,54.0,49.0,30.07,NE,49,0.0,-999.0,84,-99.99,,,0.00,weatherlink.com 1.10,2013-05-08 05:13:00,
2013-05-08 01:28:00,53.9,50.0,30.06,NE,49,0.0,-999.0,86,-99.99,,,0.00,weatherlink.com 1.10,2013-05-08 05:28:00,
2013-05-08 01:43:00,54.1,50.0,30.05,NE,49,0.0,-999.0,87,-99.99,,,0.00,weatherlink.com 1.10,2013-05-08 05:43:00,
2013-05-08 01:58:00,54.0,51.0,30.05,NE,49,0.0,-999.0,88,-99.99,,,0.00,weatherlink.com 1.10,2013-05-08 05:58:00,
2013-05-08 02:13:00,54.7,51.0,30.05,NE,49,0.0,-999.0,87,-99.99,,,0.00,weatherlink.com 1.10,2013-05-08 06:13:00,
2013-05-08 02:28:00,53.7,50.0,30.04,NE,49,0.0,-999.0,86,-99.99,,,0.00,weatherlink.com 1.10,2013-05-08 06:28:00,
2013-05-08 02:43:00,53.6,50.0,30.04,NE,49,0.0,-999.0,88,-99.99,,,0.00,weatherlink.com 1.10,2013-05-08 06:43:00,
2013-05-08 02:58:00,53.3,50.0,30.03,NE,49,0.0,-999.0,89,-99.99,,,0.00,weatherlink.com 1.10,2013-05-08 06:58:00,
2013-05-08 03:13:00,52.5,49.0,30.04,NE,49,0.0,-999.0,89,-99.99,,,0.00,weatherlink.com 1.10,2013-05-08 07:13:00,
2013-05-08 03:28:00,52.3,50.0,30.04,NE,49,0.0,-999.0,91,-99.99,,,0.00,weatherlink.com 1.10,2013-05-08 07:28:00,
2013-05-08 03:43:00,52.1,50.0,30.04,NE,49,0.0,-999.0,91,-99.99,,,0.00,weatherlink.com 1.10,2013-05-08 07:43:00,
2013-05-08 03:58:00,51.7,49.0,30.04,NE,49,0.0,-999.0,91,-99.99,,,0.00,weatherlink.com 1.10,2013-05-08 07:58:00,
2013-05-08 04:13:00,51.9,50.0,30.04,NE,49,0.0,-999.0,92,-99.99,,,0.00,weatherlink.com 1.10,2013-05-08 08:13:00,
2013-05-08 04:28:00,52.0,50.0,30.04,NE,49,0.0,-999.0,92,-99.99,,,0.00,weatherlink.com 1.10,2013-05-08 08:28:00,
2013-05-08 04:43:00,51.5,49.0,30.04,NNW,338,0.0,-999.0,92,-99.99,,,0.00,weatherlink.com 1.10,2013-05-08 08:43:00,
2013-05-08 04:58:00,52.0,50.0,30.05,North,355,0.0,-999.0,93,-99.99,,,0.00,weatherlink.com 1.10,2013-05-08 08:58:00,
2013-05-08 05:13:00,52.4,50.0,30.05,NNE,18,0.0,-999.0,92,-99.99,,,0.00,weatherlink.com 1.10,2013-05-08 09:13:00,
2013-05-08 05:28:00,52.1,50.0,30.05,NNE,18,0.0,-999.0,93,-99.99,,,0.00,weatherlink.com 1.10,2013-05-08 09:28:00,
2013-05-08 05:43:00,52.3,50.0,30.05,NNE,18,0.0,-999.0,93,-99.99,,,0.00,weatherlink.com 1.10,2013-05-08 09:43:00,
2013-05-08 05:58:00,52.6,51.0,30.05,NNE,18,0.0,-999.0,93,-99.99,,,0.00,weatherlink.com 1.10,2013-05-08 09:58:00,
2013-05-08 06:13:00,52.4,51.0,30.05,NNE,18,0.0,-999.0,93,-99.99,,,0.00,weatherlink.com 1.10,2013-05-08 10:13:00,
2013-05-08 06:28:00,52.5,51.0,30.06,NNE,18,0.0,-999.0,93,-99.99,,,0.00,weatherlink.com 1.10,2013-05-08 10:28:00,
2013-05-08 06:43:00,52.8,51.0,30.06,NNE,18,0.0,-999.0,92,-99.99,,,0.00,weatherlink.com 1.10,2013-05-08 10:43:00,
2013-05-08 06:58:00,53.2,51.0,30.07,NNE,18,0.0,-999.0,92,-99.99,,,0.00,weatherlink.com 1.10,2013-05-08 10:58:00,
2013-05-08 07:13:00,53.5,51.0,30.07,NNE,18,0.0,-999.0,90,-99.99,,,0.00,weatherlink.com 1.10,2013-05-08 11:13:00,
2013-05-08 07:28:00,54.0,51.0,30.07,NNE,18,0.0,-999.0,90,-99.99,,,0.00,weatherlink.com 1.10,2013-05-08 11:28:00,
2013-05-08 07:43:00,54.9,52.0,30.07,NNE,18,2.0,-999.0,89,-99.99,,,0.00,weatherlink.com 1.10,2013-05-08 11:43:00,
2013-05-08 07:58:00,56.1,53.0,30.07,NE,46,0.0,-999.0,89,-99.99,,,0.00,weatherlink.com 1.10,2013-05-08 11:58:00,
2013-05-08 08:14:00,57.2,54.0,30.07,SE,126,2.0,-999.0,88,-99.99,,,0.00,weatherlink.com 1.10,2013-05-08 12:14:00,
2013-05-08 08:29:00,59.1,55.0,30.07,SE,146,0.0,-999.0,86,-99.99,,,0.00,weatherlink.com 1.10,2013-05-08 12:29:00,
2013-05-08 08:44:00,60.6,56.0,30.07,SE,146,0.0,-999.0,84,-99.99,,,0.00,weatherlink.com 1.10,2013-05-08 12:44:00,
2013-05-08 08:59:00,62.8,57.0,30.07,SE,146,0.0,-999.0,81,-99.99,,,0.00,weatherlink.com 1.10,2013-05-08 12:59:00,
2013-05-08 09:14:00,65.4,57.0,30.07,SE,146,2.0,-999.0,75,-99.99,,,0.00,weatherlink.com 1.10,2013-05-08 13:14:00,
2013-05-08 09:29:00,67.6,58.0,30.07,SE,146,0.0,-999.0,71,-99.99,,,0.00,weatherlink.com 1.10,2013-05-08 13:29:00,
2013-05-08 09:44:00,68.0,57.0,30.07,SE,146,0.0,-999.0,67,-99.99,,,0.00,weatherlink.com 1.10,2013-05-08 13:44:00,
2013-05-08 09:59:00,69.8,57.0,30.07,ESE,108,0.0,-999.0,65,-99.99,,,0.00,weatherlink.com 1.10,2013-05-08 13:59:00,
2013-05-08 10:14:00,70.6,56.0,30.07,SSW,204,1.0,-999.0,61,-99.99,,,0.00,weatherlink.com 1.10,2013-05-08 14:14:00,
2013-05-08 10:29:00,71.5,57.0,30.06,SW,225,0.0,-999.0,61,-99.99,,,0.00,weatherlink.com 1.10,2013-05-08 14:29:00,
2013-05-08 10:44:00,71.3,59.0,30.05,North,9,3.0,-999.0,65,-99.99,,,0.00,weatherlink.com 1.10,2013-05-08 14:44:00,
2013-05-08 10:59:00,68.5,57.0,30.06,North,5,5.0,-999.0,66,-99.99,,,0.00,weatherlink.com 1.10,2013-05-08 14:59:00,
2013-05-08 11:14:00,69.6,57.0,30.06,North,350,5.0,-999.0,65,-99.99,,,0.00,weatherlink.com 1.10,2013-05-08 15:14:00,
2013-05-08 11:29:00,67.5,57.0,30.05,North,360,6.0,-999.0,69,-99.99,,,0.00,weatherlink.com 1.10,2013-05-08 15:29:00,
2013-05-08 11:44:00,66.9,57.0,30.05,NNE,13,5.0,-999.0,70,-99.99,,,0.00,weatherlink.com 1.10,2013-05-08 15:44:00,
2013-05-08 11:59:00,69.4,57.0,30.05,North,360,4.0,-999.0,65,-99.99,,,0.00,weatherlink.com 1.10,2013-05-08 15:59:00,
2013-05-08 12:14:00,69.9,57.0,30.04,NNE,17,7.0,-999.0,63,-99.99,,,0.00,weatherlink.com 1.10,2013-05-08 16:14:00,
2013-05-08 12:29:00,68.8,56.0,30.04,East,80,0.0,-999.0,63,-99.99,,,0.00,weatherlink.com 1.10,2013-05-08 16:29:00,
2013-05-08 12:44:00,68.3,57.0,30.04,NE,50,3.0,-999.0,67,-99.99,,,0.00,weatherlink.com 1.10,2013-05-08 16:44:00,
2013-05-08 12:59:00,67.1,56.0,30.04,NE,35,3.0,-999.0,68,-99.99,,,0.00,weatherlink.com 1.10,2013-05-08 16:59:00,
2013-05-08 13:14:00,65.8,56.0,30.04,NE,42,0.0,-999.0,70,-99.99,,,0.00,weatherlink.com 1.10,2013-05-08 17:14:00,
2013-05-08 13:29:00,64.3,55.0,30.04,NE,56,3.0,-999.0,72,-99.99,,,0.00,weatherlink.com 1.10,2013-05-08 17:29:00,
2013-05-08 13:44:00,63.1,56.0,30.03,NNE,22,0.0,-999.0,77,-99.99,,,0.00,weatherlink.com 1.10,2013-05-08 17:44:00,
2013-05-08 13:59:00,64.0,57.0,30.04,NE,43,0.0,-999.0,77,-99.99,,,0.00,weatherlink.com 1.10,2013-05-08 17:59:00,
2013-05-08 14:14:00,63.4,58.0,30.04,ENE,67,2.0,-999.0,83,-99.99,,,0.02,weatherlink.com 1.10,2013-05-08 18:14:00,
2013-05-08 14:29:00,62.9,59.0,30.04,NE,48,0.0,-999.0,88,-99.99,,,0.03,weatherlink.com 1.10,2013-05-08 18:29:00,
2013-05-08 14:44:00,62.2,59.0,30.04,NE,51,1.0,-999.0,90,-99.99,,,0.08,weatherlink.com 1.10,2013-05-08 18:44:00,
2013-05-08 14:59:00,62.1,60.0,30.03,NE,44,0.0,-999.0,92,-99.99,,,0.14,weatherlink.com 1.10,2013-05-08 18:59:00,
2013-05-08 15:14:00,62.4,61.0,30.03,ENE,63,0.0,-999.0,94,-99.99,,,0.16,weatherlink.com 1.10,2013-05-08 19:14:00,
2013-05-08 15:29:00,62.7,61.0,30.02,ENE,63,0.0,-999.0,95,-99.99,,,0.17,weatherlink.com 1.10,2013-05-08 19:29:00,
2013-05-08 15:44:00,63.1,62.0,30.02,ENE,59,0.0,-999.0,95,-99.99,,,0.18,weatherlink.com 1.10,2013-05-08 19:44:00,
2013-05-08 15:59:00,63.1,61.0,30.02,NE,49,2.0,-999.0,94,-99.99,,,0.18,weatherlink.com 1.10,2013-05-08 19:59:00,
2013-05-08 16:14:00,63.2,62.0,30.02,ENE,76,0.0,-999.0,95,-99.99,,,0.19,weatherlink.com 1.10,2013-05-08 20:14:00,
2013-05-08 16:29:00,63.1,62.0,30.02,ENE,63,0.0,-999.0,95,-99.99,,,0.19,weatherlink.com 1.10,2013-05-08 20:29:00,
2013-05-08 16:44:00,63.1,62.0,30.01,East,84,0.0,-999.0,95,-99.99,,,0.19,weatherlink.com 1.10,2013-05-08 20:44:00,
2013-05-08 16:59:00,63.2,62.0,30.00,East,94,0.0,-999.0,96,-99.99,,,0.19,weatherlink.com 1.10,2013-05-08 20:59:00,
2013-05-08 17:15:00,63.6,63.0,30.00,East,94,0.0,-999.0,96,-99.99,,,0.19,weatherlink.com 1.10,2013-05-08 21:15:00,
2013-05-08 17:30:00,64.0,63.0,30.00,East,94,0.0,-999.0,96,-99.99,,,0.19,weatherlink.com 1.10,2013-05-08 21:30:00,
2013-05-08 17:45:00,64.5,63.0,30.00,East,94,0.0,-999.0,96,-99.99,,,0.19,weatherlink.com 1.10,2013-05-08 21:45:00,
2013-05-08 18:00:00,64.4,63.0,30.00,East,94,0.0,-999.0,95,-99.99,,,0.19,weatherlink.com 1.10,2013-05-08 22:00:00,
2013-05-08 18:15:00,64.3,63.0,29.99,East,94,0.0,-999.0,95,-99.99,,,0.19,weatherlink.com 1.10,2013-05-08 22:15:00,
2013-05-08 18:30:00,64.3,63.0,29.99,East,94,0.0,-999.0,95,-99.99,,,0.19,weatherlink.com 1.10,2013-05-08 22:30:00,
2013-05-08 18:45:00,64.4,63.0,29.98,NNE,21,0.0,-999.0,95,-99.99,,,0.19,weatherlink.com 1.10,2013-05-08 22:45:00,
2013-05-08 19:00:00,62.3,61.0,29.98,NNE,23,0.0,-999.0,94,-99.99,,,0.19,weatherlink.com 1.10,2013-05-08 23:00:00,
2013-05-08 19:15:00,60.3,58.0,29.99,NE,44,0.0,-999.0,93,-99.99,,,0.19,weatherlink.com 1.10,2013-05-08 23:15:00,
2013-05-08 19:30:00,59.8,58.0,29.99,NE,43,2.0,-999.0,94,-99.99,,,0.19,weatherlink.com 1.10,2013-05-08 23:30:00,
2013-05-08 19:45:00,60.3,59.0,29.99,ENE,65,0.0,-999.0,95,-99.99,,,0.19,weatherlink.com 1.10,2013-05-08 23:45:00,
2013-05-08 20:00:00,60.7,59.0,29.99,ENE,65,0.0,-999.0,94,-99.99,,,0.19,weatherlink.com 1.10,2013-05-09 00:00:00,
2013-05-08 20:15:00,60.7,59.0,29.98,NE,44,0.0,-999.0,94,-99.99,,,0.19,weatherlink.com 1.10,2013-05-09 00:15:00,
2013-05-08 20:30:00,60.2,58.0,29.98,NE,48,0.0,-999.0,93,-99.99,,,0.19,weatherlink.com 1.10,2013-05-09 00:30:00,
2013-05-08 20:45:00,58.9,57.0,29.98,NE,48,0.0,-999.0,92,-99.99,,,0.19,weatherlink.com 1.10,2013-05-09 00:45:00,
2013-05-08 21:00:00,58.2,56.0,29.98,NE,48,0.0,-999.0,93,-99.99,,,0.19,weatherlink.com 1.10,2013-05-09 01:00:00,
2013-05-08 21:15:00,57.4,55.0,29.98,NE,47,1.0,-999.0,93,-99.99,,,0.19,weatherlink.com 1.10,2013-05-09 01:15:00,
2013-05-08 21:30:00,56.7,55.0,29.99,NE,55,0.0,-999.0,94,-99.99,,,0.19,weatherlink.com 1.10,2013-05-09 01:30:00,
2013-05-08 21:45:00,55.7,54.0,29.99,NE,49,0.0,-999.0,94,-99.99,,,0.19,weatherlink.com 1.10,2013-05-09 01:45:00,
2013-05-08 22:00:00,54.8,53.0,30.00,ENE,59,0.0,-999.0,95,-99.99,,,0.19,weatherlink.com 1.10,2013-05-09 02:00:00,
2013-05-08 22:15:00,54.2,53.0,29.99,ENE,59,0.0,-999.0,95,-99.99,,,0.19,weatherlink.com 1.10,2013-05-09 02:15:00,
2013-05-08 22:30:00,54.1,53.0,30.00,ENE,59,0.0,-999.0,96,-99.99,,,0.19,weatherlink.com 1.10,2013-05-09 02:30:00,
2013-05-08 22:45:00,53.6,53.0,29.99,ENE,60,0.0,-999.0,96,-99.99,,,0.19,weatherlink.com 1.10,2013-05-09 02:45:00,
2013-05-08 23:00:00,53.2,52.0,29.99,ENE,62,0.0,-999.0,96,-99.99,,,0.19,weatherlink.com 1.10,2013-05-09 03:00:00,
2013-05-08 23:15:00,53.5,53.0,29.99,ENE,62,0.0,-999.0,97,-99.99,,,0.19,weatherlink.com 1.10,2013-05-09 03:15:00,
2013-05-08 23:30:00,53.8,53.0,29.98,ENE,62,0.0,-999.0,97,-99.99,,,0.19,weatherlink.com 1.10,2013-05-09 03:30:00,
2013-05-08 23:45:00,54.0,53.0,29.98,ENE,62,0.0,-999.0,97,-99.99,,,0.19,weatherlink.com 1.10,2013-05-09 03:45:00,